Bryce, UT

6:20 AM MDT on August 27, 2016 (GMT -0600)
Bryce Canyon

Weather History for KBCE - August, 2012

Change the Weather History Date:

Friday, August 31, 2012

  Actual Average Record
Temperature  
Mean Temperature 62 °F -  
Max Temperature 73 °F 74 °F 85 °F (1985)
Min Temperature 50 °F 42 °F 23 °F (1962)
Degree Days  
Heating Degree Days 4    
Growing Degree Days 12 (Base 50)    
Moisture  
Dew Point 48 °F    
Average Humidity 66    
Maximum Humidity 93    
Minimum Humidity 35    
Precipitation  
Precipitation 0.11 in - - ()
Sea Level Pressure  
Sea Level Pressure 29.97 in    
Wind  
Wind Speed 8 mph (SW)    
Max Wind Speed 18 mph    
Max Gust Speed 24 mph    
Visibility 10 miles    
Events      
Averages and records for this station are not official NWS values.
T = Trace of Precipitation, MM = Missing Value Source: NWS Daily Summary

Daily Weather History Graph

Daily Weather History Graph

Search for Another Location

Airport or City:

Trip Planner

Search our weather history database for the weather conditions in past years. The results will help you decide how hot, cold, wet, or windy it might be!

Date:

Astronomy

Aug. 31, 2012 Rise Set
Actual Time 6:58 AM MDT 7:58 PM MDT
Civil Twilight 6:31 AM MDT 8:25 PM MDT
Nautical Twilight 5:59 AM MDT 8:57 PM MDT
Astronomical Twilight 5:26 AM MDT 9:29 PM MDT
Moon 7:48 PM MDT (8/31) 7:06 AM MDT (8/31)
Length of Visible Light 13h 53m
Length of Day
13h 00m
Full, 100% of the Moon is Illuminated
Aug 31
Full
Sep 8
Last Quarter
Sep 15
New
Sep 22
First Quarter
Sep 29
Full

Hourly Weather History & Observations

Time (MDT) Temp. Dew Point Humidity Pressure Visibility Wind Dir Wind Speed Gust Speed Precip Events Conditions
12:53 AM 54.0 °F 50.0 °F 86% 30.00 in 10.0 mi West 8.1 mph - 0.00 in   Overcast
1:53 AM 54.0 °F 48.0 °F 80% 30.00 in 10.0 mi WNW 6.9 mph - 0.00 in   Mostly Cloudy
2:53 AM 54.0 °F 48.0 °F 80% 29.94 in 10.0 mi NNE 8.1 mph - N/A   Overcast
3:53 AM 54.0 °F 48.0 °F 80% 29.94 in 10.0 mi NW 8.1 mph - N/A   Mostly Cloudy
4:53 AM 51.1 °F 48.0 °F 89% 29.95 in 10.0 mi West 3.5 mph - N/A   Clear
5:53 AM 51.1 °F 48.0 °F 89% 29.95 in 10.0 mi West 6.9 mph - N/A   Partly Cloudy
6:53 AM 50.0 °F 46.9 °F 89% 29.99 in 10.0 mi West 5.8 mph - N/A   Overcast
7:53 AM 51.1 °F 46.9 °F 86% 30.01 in 10.0 mi Calm Calm - N/A   Clear
8:53 AM 57.9 °F 48.9 °F 72% 29.99 in 10.0 mi Calm Calm - N/A   Clear
9:53 AM 63.0 °F 46.9 °F 56% 29.98 in 10.0 mi Calm Calm - N/A   Mostly Cloudy
10:53 AM 69.1 °F 45.0 °F 42% 29.94 in 10.0 mi SE 4.6 mph - N/A   Partly Cloudy
11:53 AM 68.0 °F 46.9 °F 47% 29.97 in 10.0 mi SSE 9.2 mph - N/A   Mostly Cloudy
12:53 PM 71.1 °F 48.0 °F 44% 29.95 in 10.0 mi South 12.7 mph - N/A   Scattered Clouds
1:53 PM 73.0 °F 44.1 °F 35% 29.92 in 10.0 mi South 18.4 mph 21.9 mph N/A   Partly Cloudy
2:53 PM 71.1 °F 44.1 °F 38% 29.93 in 10.0 mi SSW 13.8 mph 24.2 mph N/A   Mostly Cloudy
3:45 PM 69.8 °F 48.2 °F 46% 30.28 in 10.0 mi West 16.1 mph 20.7 mph N/A   Mostly Cloudy
3:53 PM 70.0 °F 50.0 °F 49% 29.93 in 10.0 mi West 12.7 mph 21.9 mph N/A   Overcast
4:53 PM 72.0 °F 45.0 °F 38% 29.92 in 10.0 mi South 16.1 mph - N/A   Partly Cloudy
5:53 PM 71.1 °F 46.0 °F 41% 29.93 in 10.0 mi SSW 12.7 mph - N/A   Clear
6:53 PM 71.1 °F 46.0 °F 41% 29.92 in 10.0 mi SW 8.1 mph - N/A   Scattered Clouds
7:53 PM 62.1 °F 52.0 °F 70% 29.96 in 10.0 mi SE 8.1 mph - 0.06 in   Overcast
8:53 PM 60.1 °F 52.0 °F 75% 29.97 in 10.0 mi ESE 6.9 mph - 0.01 in   Mostly Cloudy
9:53 PM 55.9 °F 53.1 °F 90% 30.00 in 10.0 mi ESE 6.9 mph - 0.04 in   Mostly Cloudy
10:53 PM 55.0 °F 53.1 °F 93% 29.97 in 10.0 mi ENE 6.9 mph - 0.00 in   Scattered Clouds
11:53 PM 53.1 °F 51.1 °F 93% 29.97 in 10.0 mi NW 3.5 mph - N/A   Clear